Regional Weather Roundup
Issued by NWS State College, PA

Home | Current Version | Previous Version | Text Only | Print | Product List | Glossary On
Versions: 1 2 3 4 5 6 7 8 9 10 11 12 13 14 15 16 17 18 19 20 21 22 23 24 25 26 27 28 29 30 31 32 33 34 35 36 37 38 39 40 41 42 43 44 45 46 47 48 49 50
000
ASUS41 KCTP 202310
RWRCTP

REGIONAL WEATHER ROUNDUP
NATIONAL WEATHER SERVICE STATE COLLEGE PA
700 PM EDT MON OCT 20 2014

Note: "fair" indicates few or no clouds below 12,000 feet with no
significant weather and/or obstructions to visibility.

* = STATION THAT DOES NOT REPORT PRECIPITATION /E.G. RAIN...SNOW...ETC/
    THUNDER OR FOG.

PAZ002>004-007>009-013>016-020>023-029>032-210000-
WESTERN PENNSYLVANIA

CITY           SKY/WX    TMP DP  RH WIND       PRES   REMARKS
ERIE           LGT RAIN  54  43  66 S13       29.82S
MEADVILLE      LGT RAIN  50  44  80 VRB5      29.84S
FRANKLIN*      CLOUDY    50  41  71 S9        29.87S
NEW CASTLE     LGT RAIN  51  46  83 CALM      29.88R
BEAVER COUNTY  LGT RAIN  50  46  87 SW3       29.87F
BUTLER*        MOCLDY    54  41  62 S7        29.89F
PITTSBURGH INT CLOUDY    55  42  61 S7        29.88F
PITTSBURGH     CLOUDY    55  38  52 S7        29.89R
INDIANA*       CLOUDY    54  41  62 SW5       29.93F
LATROBE        CLOUDY    54  45  71 S3        29.91F
WASHINGTON CO* CLOUDY    54  41  62 S7        29.91S
$$

PAZ004>006-010>012-017>019-024>028-033>037-041-042-045-046-049>053-210000-
CENTRAL PENNSYLVANIA

CITY           SKY/WX    TMP DP  RH WIND       PRES   REMARKS
BRADFORD       CLOUDY    50  39  66 SW6       29.87R
DUBOIS         CLOUDY    51  40  65 S9        29.87S
CLEARFIELD     CLOUDY    53  38  56 S7        29.89S
JOHNSTOWN      CLOUDY    51  34  52 SW8       29.91R
ALTOONA        CLOUDY    50  43  77 CALM      29.92S
STATE COLLEGE  CLOUDY    54  37  54 SW6       29.90S
WILLIAMSPORT   CLOUDY    58  35  42 VRB6      29.90S
SELINSGROVE    CLOUDY    58  39  49 S7        29.92S
FT INDIANTOWN  DRIZZLE   54  48  82 N1        29.95R
CAPITAL CITY   MOCLDY    58  40  51 SW3       29.94S
HARRISBURG     CLOUDY    56  48  74 CALM      29.94S
YORK           MOCLDY    51  43  74 CALM      29.95R
$$

PAZ038>040-043-044-047-048-054-055-060>062-067>071-210000-
EASTERN PENNSYLVANIA

CITY           SKY/WX    TMP DP  RH WIND       PRES   REMARKS
SCRANTON       CLOUDY    55  38  52 VRB5      29.92S
MOUNT POCONO   CLOUDY    50  38  63 SW7       29.94S
ALLENTOWN      CLOUDY    57  39  51 S6        29.96S
QUAKERTOWN*    MOCLDY    52  39  62 CALM      29.97S
READING        CLOUDY    57  42  57 S5        29.95S
LANCASTER      MOCLDY    54  44  69 SE6       29.95S
COATESVILLE    CLOUDY    54  45  71 CALM      29.97S
POTTSTOWN      CLOUDY    51  40  65 CALM      29.98R
BLUE BELL      MOCLDY    52  43  71 CALM      29.96S
DOYLESTOWN     MOCLDY    50  41  71 CALM      29.96S
WILLOW GROVE   NOT AVBL
NORTH PHILA    MOCLDY    57  39  51 SE3       29.99R
PHILADELPHIA   MOCLDY    58  44  60 S5        29.98R
$$


USA.gov is the U.S. government's official web portal to all federal, state and local government web resources and services.